Погода в Хороге

Таджикистан     37°29′16″N   71°32′57″E
темп.,
°C
ветер,
м/с
пор.,
м/с
влажн.,
%
обл.,
%
осадки,
мм/ч
давл.,
гПа
погр.,
м
13 апреля, вт
вт1323:00−5с0184100 0.1 102911
02:00−5св0086100 0.0 102810
05:00−6ююз1193100 0.9 102964
08:00−5ююв2294100 1.5 1029142
11:00−3ююв2296100 3.0 1028261
14:00−1юв2299100 2.4 1025241
17:000ююз0197100 5.2 1024122
20:00−7з22825 0.3 103013
14 апреля, ср
ср1423:00−10зсз227598 0.3 103611
02:00−12зсз2276100 0.0 103811
05:00−13зсз228198 0.0 103911
08:00−10зсз118440 0.0 1037133
11:00−6зюз0073100 0.0 1029181
14:00−3в107988 0.0 1025162
17:00−2вюв1177100 0.0 102385
20:00−5з1183100 0.0 102510
15 апреля, чт
чт1523:00−6зюз1179100 0.0 102612
02:00−7з1180100 0.0 102510
05:00−7сз1183100 0.0 102510
08:00−5зюз1173100 0.0 102399
11:00−3вюв2281100 0.1 1023198
14:00−1с228697 0.3 1020289
17:00−1в1185100 0.4 1019167
20:00−3юв1198100 0.6 102245
16 апреля, пт
пт1623:00−4з1198100 0.9 102219
02:00−4зюз1196100 0.1 102127
05:00−4зсз1196100 0.2 102121
08:00−3юз009356 0.0 1022145
11:00−1сз119041 0.0 1021265
14:00+1юз1179100 0.0 1018326
17:00+2ююв1181100 0.0 101752
20:00−1зюз1187100 0.0 102010
17 апреля, сб
сб1723:00−1зсз1186100 0.0 101910
02:00−2зсз1185100 0.0 101711
05:00−2ююз1182100 0.0 101811
08:00−1ююв1172100 0.0 1018186
11:00+1ююз1167100 0.1 1017369
14:00+3зюз1255100 0.1 10151048
17:00+2зюз3369100 0.3 1017412
20:00−1зюз2279100 0.0 101924